RH
3941 3957 3951 3918 3816 3697 3551 3387 3241 3121 3033 2945 2929 2886 2890 2896 2927 2965 3009 3145 3268 3310 3278 3190 3089 3037 3018 3054 3159 3274 3389 3564 3769 3870 3828 3653 3352 3072 2820 2600 2438 2429 2509 2737 3066 3390 3705 3945 4079 4098 4042 3885 3698 3501 3314 3166 3067 2973 2898 2835 2787 2726 2684 2656 2727 2823 2980 3184 3595
4243 4246 4224 4153 4035 3858 3687 3507 3370 3251 3141 3053 3035 3038 3055 3051 3062 3082 3107 3195 3301 3415 3493 3496 3445 3363 3310 3290 3334 3368 3404 3457 3602 3763 3885 3885 3651 3395 3139 2879 2670 2491 2375 2359 2507 2715 3001 3318 3616 3846 3996 4043 3951 3802 3621 3418 3221 3073 2979 2907 2849 2774 2688 2599 2574 2574 2604 2670 2867
4474 4452 4395 4291 4134 3963 3798 3641 3512 3387 3293 3196 3150 3160 3178 3232 3248 3268 3295 3272 3326 3417 3540 3666 3700 3705 3696 3645 3574 3541 3508 3449 3424 3516 3685 3832 3790 3599 3387 3159 2968 2756 2550 2384 2307 2323 2422 2620 2902 3205 3496 3750 3892 3921 3858 3704 3479 3270 3095 2968 2875 2803 2745 2687 2612 2539 2464 2445 2472
4627 4562 4475 4332 4155 4004 3867 3746 3642 3540 3465 3365 3317 3290 3300 3316 3416 3489 3524 3529 3506 3537 3588 3702 3830 3916 3949 3951 3883 3756 3668 3532 3397 3352 3402 3588 3704 3687 3571 3399 3224 3048 2879 2670 2490 2333 2255 2241 2384 2570 2802 3107 3391 3640 3788 3856 3740 3567 3363 3144 2957 2837 2776 2754 2707 2648 2546 2440 2371
4712 4608 4471 4308 4140 4023 3922 3849 3783 3725 3650 3574 3521 3482 3444 3471 3546 3649 3741 3811 3830 3819 3840 3876 3950 4010 4081 4120 4088 3979 3818 3650 3460 3320 3245 3298 3498 3627 3643 3569 3439 3312 3169 3004 2811 2605 2417 2271 2226 2256 2346 2515 2759 3046 3326 3577 3717 3735 3647 3468 3188 2968 2826 2782 2771 2721 2662 2549 2435
4730 4579 4402 4226 4105 4016 3951 3909 3879 3843 3798 3793 3754 3754 3749 3753 3808 3900 3978 4081 4143 4166 4180 4213 4215 4246 4249 4278 4235 4142 3962 3771 3597 3390 3234 3157 3363 3546 3695 3705 3636 3548 3421 3311 3154 2978 2770 2548 2398 2289 2233 2260 2366 2532 2732 3038 3337 3550 3690 3713 3499 3265 3046 2875 2815 2793 2748 2679 2558
4673 4473 4249 4098 4023 3955 3924 3887 3884 3885 3910 3950 4009 4035 4084 4118 4195 4248 4313 4363 4420 4474 4507 4513 4508 4465 4420 4384 4302 4199 4052 3868 3740 3596 3429 3227 3329 3543 3784 3905 3864 3730 3601 3488 3387 3274 3121 2926 2712 2534 2399 2310 2284 2318 2385 2568 2823 3105 3373 3556 3569 3486 3340 3131 2963 2870 2793 2743 2660
4524 4313 4106 3989 3941 3919 3932 3924 3945 3982 4016 4090 4169 4279 4351 4450 4519 4576 4616 4635 4639 4643 4648 4600 4565 4495 4430 4340 4221 4095 3987 3884 3896 3882 3784 3460 3355 3504 3791 4014 4040 3957 3789 3640 3504 3383 3260 3131 2967 2805 2638 2518 2436 2368 2359 2399 2538 2720 2930 3157 3318 3419 3446 3354 3203 3027 2909 2815 2732
4370 4120 3991 3921 3929 3954 3960 3992 4012 4080 4120 4211 4310 4430 4555 4669 4740 4787 4796 4772 4745 4692 4608 4523 4418 4335 4263 4198 4090 3957 3889 3870 4025 4170 4161 3832 3436 3388 3579 3839 3990 4019 3957 3832 3659 3503 3351 3213 3062 2945 2809 2725 2627 2559 2513 2515 2532 2597 2680 2820 2980 3141 3274 3364 3347 3245 3118 2934 2821
4238 4041 3959 3920 3935 3968 3963 4001 4027 4084 4146 4207 4301 4424 4566 4691 4757 4815 4813 4768 4684 4583 4451 4326 4219 4179 4151 4179 4111 4008 3958 4027 4326 4476 4461 4123 3525 3291 3296 3467 3596 3718 3763 3752 3710 3622 3501 3359 3185 3020 2895 2825 2795 2752 2712 2713 2689 2679 2677 2701 2779 2879 3024 3165 3302 3337 3281 3141 2951
4157 4035 3976 3963 3971 3970 3993 4003 4010 4020 4035 4064 4094 4166 4252 4366 4443 4506 4510 4487 4427 4300 4187 4040 4002 4040 4117 4230 4223 4209 4243 4416 4668 4752 4607 4170 3599 3268 3126 3190 3227 3258 3286 3305 3359 3396 3413 3398 3255 3128 3005 2918 2896 2907 2887 2886 2859 2841 2812 2785 2804 2838 2902 2991 3130 3248 3324 3299 3116
4170 4119 4090 4080 4085 4056 4035 4017 3962 3893 3829 3771 3721 3699 3709 3760 3818 3896 3950 3976 3949 3836 3714 3595 3628 3727 3872 4020 4071 4126 4257 4496 4715 4715 4492 4049 3564 3284 3132 3103 3063 2985 2913 2848 2858 2939 3012 3110 3129 3104 3066 3005 2986 3003 3017 3014 3007 2980 2951 2935 2923 2922 2937 2955 3028 3118 3207 3275 3236
4254 4242 4228 4213 4213 4173 4112 4029 3917 3782 3608 3449 3322 3246 3181 3162 3220 3294 3376 3439 3397 3312 3207 3069 3123 3259 3426 3551 3573 3579 3663 3840 4195 4344 4246 3879 3513 3265 3129 3038 2918 2793 2692 2584 2554 2583 2646 2744 2866 2941 2969 2996 3013 3016 3051 3065 3084 3071 3073 3066 3057 3036 3016 3001 3024 3056 3115 3196 3223
4370 4354 4334 4303 4252 4186 4123 4022 3853 3641 3437 3243 3093 3005 2957 2932 2940 2989 3035 3086 3047 2974 2864 2768 2811 2877 2987 3029 2969 2886 2840 2891 3187 3438 3550 3443 3247 3064 2926 2809 2700 2591 2497 2403 2384 2405 2459 2530 2633 2724 2796 2874 2927 2968 3027 3064 3087 3106 3123 3141 3138 3117 3108 3115 3105 3107 3138 3170 3194
4404 4340 4258 4179 4128 4104 4068 3979 3803 3590 3388 3201 3104 3042 3000 2957 2884 2879 2896 2913 2902 2855 2782 2709 2658 2636 2622 2559 2479 2384 2307 2280 2371 2499 2630 2682 2637 2562 2507 2452 2386 2343 2313 2287 2289 2315 2370 2435 2495 2584 2655 2713 2796 2854 2918 2988 3025 3090 3115 3157 3154 3159 3166 3168 3192 3193 3189 3204 3189
4221 4088 3990 3976 4026 4093 4107 4071 3880 3662 3452 3266 3188 3109 2991 2877 2759 2674 2643 2674 2683 2675 2661 2596 2534 2449 2340 2254 2163 2094 2067 2071 2093 2155 2208 2222 2202 2199 2173 2157 2176 2187 2195 2233 2249 2284 2321 2373 2411 2472 2538 2596 2673 2748 2825 2884 2942 2996 3060 3084 3120 3137 3170 3183 3218 3246 3242 3263 3209
3902 3857 3880 4016 4193 4296 4322 4252 4026 3780 3532 3305 3108 2913 2729 2568 2437 2343 2298 2291 2317 2332 2338 2304 2237 2200 2126 2047 1959 1924 1914 1975 2034 2098 2130 2147 2132 2084 2075 2088 2107 2129 2156 2209 2255 2287 2320 2344 2382 2421 2495 2555 2610 2671 2731 2814 2891 2916 2964 2995 3038 3069 3100 3155 3190 3236 3279 3316 3270
3813 3955 4130 4307 4421 4456 4417 4302 4046 3762 3435 3103 2776 2518 2323 2215 2115 2049 1965 1905 1923 1926 1926 1904 1871 1846 1803 1783 1743 1733 1760 1837 1913 1974 2023 2065 2081 2089 2088 2090 2101 2128 2178 2241 2280 2321 2365 2387 2423 2478 2533 2599 2639 2682 2728 2794 2840 2901 2916 2927 2955 2976 3021 3085 3146 3223 3268 3313 3301
4087 4256 4376 4385 4340 4259 4110 3952 3677 3350 2987 2606 2312 2106 1973 1902 1829 1755 1663 1599 1555 1572 1553 1559 1532 1493 1495 1511 1519 1540 1601 1689 1753 1806 1865 1896 1947 2000 2062 2084 2130 2197 2233 2302 2363 2413 2455 2483 2525 2566 2616 2668 2708 2726 2732 2770 2801 2859 2882 2906 2911 2933 2961 3009 3078 3170 3229 3297 3296
4343 4369 4301 4176 4001 3812 3591 3363 3068 2728 2421 2132 1968 1825 1729 1648 1581 1526 1459 1382 1350 1329 1343 1357 1358 1358 1363 1374 1418 1484 1555 1621 1740 1826 1887 1901 1971 2033 2081 2129 2215 2274 2338 2413 2463 2522 2564 2598 2648 2696 2712 2742 2771 2769 2759 2768 2785 2828 2863 2886 2893 2905 2919 2952 3032 3113 3193 3253 3277
4213 4148 4001 3828 3607 3387 3139 2847 2544 2272 2017 1843 1734 1656 1592 1532 1474 1429 1383 1337 1294 1309 1323 1351 1393 1443 1481 1536 1605 1654 1737 1813 1957 2054 2126 2156 2204 2248 2296 2338 2420 2478 2515 2551 2582 2621 2647 2695 2737 2779 2812 2834 2829 2813 2789 2787 2785 2802 2854 2910 2939 2940 2950 2963 2990 3073 3164 3216 3246
3776 3660 3512 3340 3109 2853 2598 2330 2084 1903 1764 1678 1634 1605 1573 1540 1503 1466 1443 1425 1423 1465 1537 1579 1673 1749 1871 1953 2049 2132 2178 2249 2329 2407 2478 2530 2575 2600 2617 2659 2731 2751 2746 2691 2677 2673 2676 2723 2788 2835 2896 2929 2916 2870 2834 2835 2835 2856 2902 2962 2996 3038 3039 3054 3062 3083 3132 3160 3193
3196 3055 2891 2687 2474 2266 2060 1866 1768 1694 1676 1662 1670 1664 1662 1623 1622 1590 1605 1631 1703 1805 1899 2017 2149 2275 2396 2516 2615 2700 2755 2776 2784 2795 2817 2870 2914 2914 2917 2940 2976 2959 2907 2841 2791 2780 2800 2862 2901 2982 3049 3104 3088 3030 2993 2957 2976 3005 3045 3066 3103 3104 3102 3114 3102 3092 3105 3121 3099
2690 2558 2391 2219 2029 1889 1783 1710 1727 1746 1768 1774 1772 1744 1730 1721 1736 1773 1823 1897 2057 2188 2359 2529 2699 2830 2956 3052 3134 3194 3227 3251 3212 3157 3110 3093 3129 3107 3113 3102 3125 3117 3054 3010 2993 2993 3013 3099 3159 3212 3264 3316 3317 3277 3240 3220 3208 3230 3221 3217 3182 3155 3125 3101 3082 3055 3054 3045 3027
2407 2261 2102 1968 1855 1797 1798 1831 1859 1882 1871 1846 1826 1791 1793 1802 1879 1984 2108 2253 2434 2626 2835 3032 3169 3279 3344 3415 3437 3456 3478 3495 3473 3401 3320 3234 3184 3168 3168 3196 3227 3188 3178 3140 3121 3116 3174 3260 3363 3433 3466 3482 3453 3427 3393 3388 3411 3409 3387 3378 3332 3274 3213 3149 3088 3030 3012 2988 2974
2212 2076 1954 1872 1878 1890 1932 1949 1957 1924 1890 1842 1824 1836 1888 1971 2103 2282 2468 2657 2855 3058 3234 3412 3506 3545 3591 3630 3602 3559 3548 3565 3576 3571 3520 3420 3285 3213 3157 3179 3207 3213 3194 3170 3154 3180 3233 3314 3411 3491 3569 3585 3548 3512 3501 3493 3516 3539 3543 3548 3486 3429 3337 3223 3116 3033 2978 2968 2953
2058 1970 1932 1922 1967 1990 2034 2006 1954 1909 1863 1828 1862 1930 2046 2222 2420 2648 2879 3104 3258 3393 3528 3637 3684 3743 3769 3800 3787 3771 3771 3763 3819 3829 3815 3721 3589 3412 3263 3179 3181 3148 3104 3097 3123 3149 3197 3239 3303 3384 3491 3568 3590 3565 3563 3574 3576 3607 3622 3645 3597 3518 3446 3320 3175 3055 2966 2929 2916
1991 1995 2023 2074 2082 2052 2032 1963 1918 1867 1860 1890 2017 2165 2358 2555 2789 3034 3249 3428 3542 3642 3721 3797 3854 3966 4094 4170 4223 4259 4285 4307 4318 4309 4266 4193 3996 3772 3567 3365 3238 3132 3073 3056 3071 3096 3136 3162 3204 3279 3370 3478 3539 3548 3543 3554 3569 3567 3582 3568 3568 3518 3449 3327 3210 3096 2996 2950 2927
2073 2109 2157 2180 2136 2078 2000 1936 1885 1919 1966 2098 2282 2491 2714 2945 3157 3355 3496 3607 3742 3879 4025 4173 4307 4479 4665 4811 4858 4885 4885 4874 4858 4827 4736 4600 4363 4140 3919 3708 3502 3316 3159 3080 3069 3080 3080 3086 3122 3186 3252 3350 3434 3465 3482 3463 3475 3473 3468 3471 3482 3454 3398 3319 3214 3109 3032 2985 2962
2192 2243 2259 2226 2154 2073 1989 1930 1955 2041 2188 2399 2642 2854 3073 3277 3395 3525 3655 3815 4013 4277 4528 4814 5060 5252 5367 5451 5470 5463 5400 5307 5235 5126 4983 4735 4480 4264 4122 4006 3810 3585 3374 3260 3201 3149 3124 3087 3120 3137 3201 3276 3357 3416 3425 3406 3412 3404 3404 3399 3377 3329 3310 3267 3194 3132 3052 3012 2980
2321 2320 2279 2233 2143 2054 1988 1981 2056 2230 2476 2726 2982 3179 3361 3498 3586 3722 3899 4191 4524 4821 5129 5434 5730 5835 5855 5862 5884 5829 5740 5557 5390 5198 4990 4712 4457 4305 4188 4071 3959 3815 3685 3554 3466 3387 3330 3287 3267 3255 3252 3305 3364 3398 3407 3401 3410 3388 3410 3382 3346 3290 3266 3230 3193 3154 3083 3038 3006
2363 2340 2280 2202 2118 2030 2023 2076 2245 2479 2735 3029 3255 3430 3568 3672 3782 3989 4266 4648 5077 5417 5690 5904 6026 6052 6016 5991 5981 5905 5751 5551 5348 5128 4932 4714 4576 4452 4379 4326 4263 4165 4067 3974 3923 3844 3771 3713 3663 3626 3589 3566 3572 3550 3508 3488 3472 3461 3422 3405 3371 3345 3324 3298 3241 3179 3116 3071 3045
2379 2319 2245 2149 2081 2076 2131 2250 2501 2768 3024 3272 3448 3596 3733 3859 4035 4280 4661 5100 5539 5850 6026 6077 6041 5990 5926 5892 5868 5754 5613 5466 5340 5230 5130 5060 5028 5009 5013 4945 4877 4785 4705 4645 4608 4566 4534 4486 4441 4382 4317 4259 4189 4116 4040 3973 3914 3825 3747 3677 3597 3541 3501 3455 3345 3234 3148 3091 3071
2363 2272 2174 2093 2115 2170 2316 2495 2757 3018 3266 3464 3579 3700 3879 4093 4379 4705 5071 5498 5843 5996 6027 5988 5953 5902 5865 5845 5799 5679 5599 5528 5549 5596 5655 5746 5821 5880 5927 5892 5833 5774 5741 5704 5626 5574 5502 5449 5401 5354 5317 5275 5205 5126 5057 4984 4869 4757 4629 4459 4302 4155 4003 3870 3678 3495 3312 3181 3110
2330 2236 2168 2113 2184 2338 2534 2784 3035 3277 3470 3626 3711 3857 4060 4384 4799 5177 5529 5826 5900 5907 5842 5837 5887 5945 5946 5927 5860 5812 5790 5895 6045 6212 6399 6597 6723 6818 6852 6877 6904 6948 6962 6976 6885 6761 6656 6573 6504 6462 6412 6382 6278 6205 6128 6010 5872 5746 5587 5425 5262 5065 4866 4670 4414 4118 3838 3566 3375
2278 2210 2194 2232 2355 2561 2803 3070 3299 3486 3632 3747 3890 4087 4373 4768 5179 5536 5811 5941 5855 5791 5790 5886 6040 6125 6157 6136 6101 6167 6312 6520 6767 6987 7190 7364 7413 7393 7340 7299 7373 7502 7638 7735 7691 7637 7548 7484 7412 7338 7233 7098 6967 6824 6693 6563 6428 6285 6158 6035 5912 5784 5631 5474 5269 4985 4664 4320 3985
2219 2250 2318 2441 2610 2841 3087 3332 3497 3654 3755 3898 4123 4435 4803 5220 5533 5784 5922 5966 5907 5884 5941 6152 6330 6439 6491 6497 6596 6782 7052 7358 7555 7653 7721 7749 7672 7526 7312 7132 7116 7240 7448 7673 7749 7768 7738 7688 7641 7555 7428 7260 7099 6943 6809 6666 6522 6414 6303 6231 6143 6103 6043 5996 5888 5704 5465 5177 4827
2209 2327 2499 2719 2933 3128 3332 3519 3662 3799 3918 4102 4409 4791 5192 5580 5809 5960 6059 6127 6141 6185 6304 6513 6734 6876 6989 7092 7290 7509 7724 7955 7999 7963 7861 7759 7665 7538 7348 7115 6992 7059 7248 7528 7689 7770 7780 7752 7716 7606 7471 7270 7101 6945 6806 6672 6539 6459 6353 6292 6262 6248 6271 6273 6264 6180 6029 5832 5589
2269 2461 2708 2980 3200 3376 3533 3662 3759 3920 4126 4388 4765 5142 5515 5844 6017 6180 6292 6427 6552 6659 6799 7023 7235 7417 7565 7725 7876 7976 8049 8104 8099 8000 7829 7666 7629 7613 7537 7405 7302 7345 7490 7745 7900 7969 7980 7941 7905 7817 7663 7509 7352 7205 7072 6944 6848 6748 6654 6599 6566 6553 6557 6569 6587 6555 6465 6344 6256
2367 2631 2914 3201 3379 3538 3662 3759 3873 4050 4335 4704 5120 5513 5840 6102 6244 6430 6647 6873 7040 7202 7377 7553 7741 7861 7974 8071 8111 8087 8049 7990 8021 7961 7832 7670 7642 7668 7691 7690 7723 7773 7876 8073 8173 8192 8170 8126 8096 8010 7916 7834 7735 7664 7575 7502 7384 7307 7214 7143 7120 7066 6993 6940 6942 6919 6896 6833 6815
2501 2812 3101 3346 3523 3637 3737 3829 3964 4205 4552 4990 5455 5855 6154 6365 6562 6798 7041 7280 7470 7633 7776 7904 8009 8075 8130 8146 8082 8020 7982 7991 8006 8027 7968 7840 7780 7801 7879 7955 8014 8088 8165 8251 8315 8318 8307 8296 8288 8238 8163 8114 8057 8004 7954 7951 7893 7833 7770 7727 7712 7629 7521 7366 7248 7154 7129 7163 7259